www.pogodaiklimat.ru

Погода и климат >> Архив погоды >> Россия >> Якутия >> Себян-Кюель


ПОГОДА в Себян-Кюеле

  • Прогноз погоды в Себян-Кюеле
  • Монитор погоды в Себян-Кюеле

АРХИВ ПОГОДЫ в Себян-Кюеле

Время (UTC), дата Ветер
(напр.,м/с)
 
Видим.   Явления Облачность Т
(С)
Тd
(С)
f
(%)
Тe
(С)
Тes
(С)
Комфортность P
(гПа)
Po
(гПа)
Тmin
(С)
Tmax
(С)
R
(мм)
R24
(мм)
S
(см)
09 16.05 В 1 50 км 10/10 1000 м
[Sc As trans]
+10.4 +5.4 71 +10 +10 1008.2 918.9
12 16.05 ЮЗ 3 50 км 10/8 1000 м
[Sc As trans]
+7.8 +4.4 79 +5 +5 1010.0 919.8 +10.8 0.0
15 16.05 З 1 50 км 10/10 840 м
[Sc]
+4.2 +1.9 85 +3 +3 1011.8 920.3
18 16.05 З 2 20 км слаб. дождь 10/10 630 м
[Sc]
+3.5 +2.7 94 0 0 1012.0 920.3
21 16.05 СВ 2 50 км {дождь} 10/10 630 м
[Sc]
+3.8 -0.4 74 +1 +1 1011.8 920.1
00 17.05 В 3 н/о н/о +4.4 +0.2 74 +1 +1 1011.8 920.3 +3.2 0.0 0
03 17.05 В 3 50 км 10/10 630 м
[Sc]
+5.7 +2.0 77 +3 +3 1010.8 919.8
06 17.05 В 3 50 км 8/6 1000 м
[Sc Ac As]
+6.8 +1.6 69 +4 +6 1009.6 919.1
09 17.05 В 4 50 км 10/6 1000 м
[Sc Ac cast]
+3.8 -1.1 70 -0 -0 1011.7 920.0
12 17.05 В 4 50 км 10/10 1020 м
[Sc]
-0.3 -4.1 75 -6 -6 1015.2 921.9 +6.8
15 17.05 В 4 50 км 10/10 1000 м
[Sc]
-3.3 -5.7 83 -9 -9 1017.9 923.3
18 17.05 В 3 4000 м снег 10/10 1000 м
[Sc]
-5.2 -7.3 85 -11 -11 1019.0 923.7
21 17.05 В 3 50 км {снег} 10/10 1000 м
[Sc]
-5.8 -8.2 83 -11 -11 1019.5 924.0
00 18.05 В 4 50 км {снег} 10/10 480 м
[Sc]
-5.8 -8.4 82 -12 -12 1019.4 923.8 -6.1 0.2 0
03 18.05 В 3 4000 м снег 10/10 800 м
[Sc]
-4.7 -8.2 76 -10 -10 1018.8 923.6
06 18.05 В 3 20 км снег 10/10 720 м
[Sc]
-4.7 -8.7 74 -10 -10 1018.0 922.9
09 18.05 В 4 20 км слаб. снег 10/10 600 м
[Sc]
-6.1 -11.1 68 -12 -12 1018.6 923.0
12 18.05 В 3 20 км слаб. снег 10/10 500 м
[Sc]
-8.5 -11.8 77 -14 -14 1020.3 923.7 -4.2 0.0
18 18.05 В 2 н/о н/о -8.5 -12.1 75 -13 -13 1018.3 921.9
21 18.05 В 2 н/о н/о -9.2 -12.8 75 -14 -14 1018.1 921.5
00 19.05 В 2 20 км слаб. снег 10/10 480 м
[Sc]
-8.6 -13.1 70 -13 -13 1017.4 921.0 -9.2 0.2 0
03 19.05 ЮВ 3 20 км слаб. снег 10/10 900 м
[Sc]
-7.2 -12.0 69 -13 -13 1015.9 920.2
06 19.05 В 3 20 км слаб. снег 10/10 900 м
[Sc]
-6.1 -11.0 68 -11 -11 1015.6 920.3
09 19.05 СВ 2 50 км {снег} 8/8 900 м
[Sc]
-6.0 -11.8 64 -10 -9 1016.4 921.0
12 19.05 СВ 2 20 км слаб. снег 8/8 900 м
[Sc]
-6.8 -12.1 66 -11 -11 1017.3 921.5 -6.0 0.0
15 19.05 В 1 50 км {снег} 10/10 900 м
[Sc]
-7.4 -12.3 68 -10 -10 1017.1 921.2
18 19.05 штиль 0 50 км 6/6 930 м
[Sc]
-10.0 -12.0 85 -10 -10 1017.3 920.5
21 19.05 З 3 н/о н/о -7.5 -13.1 64 -13 -13 1016.0 920.1
00 20.05 В 2 н/о н/о -3.5 -12.8 48 -7 -7 1013.5 919.2 -10.7
03 20.05 ЮВ 2 50 км 10/0 2000 м
[As op]
-1.1 -10.9 47 -4 -2 1011.9 918.6
06 20.05 З 3 50 км 4/0 2000 м
[Ac trans]
+1.9 -10.3 40 -1 +4 1010.8 918.5
09 20.05 З 4 50 км ясно +2.6 -10.1 39 -1 +1 1011.2 919.1
12 20.05 З 4 50 км ясно -0.3 -10.4 46 -5 -5 1013.7 920.4 +2.6
15 20.05 ЮЗ 2 50 км ясно -4.6 -8.8 72 -9 -9 1016.0 921.1
00 21.05 Ю 1 50 км ясно +1.5 -10.0 42 +1 +9 опасность
простуды
1014.8 922.1 -10.0
03 21.05 З 4 50 км ясно +4.7 -9.5 35 +1 +9 опасность
простуды
1013.5 921.8
06 21.05 ЮЗ 2 50 км 3/0
[Ci fib]
+6.0 -9.3 32 +5 +13 1012.8 921.6
09 21.05 С 3 50 км 8/0
[Ci]
+5.9 -8.9 34 +4 +6 1012.5 921.3
12 21.05 штиль 0 50 км 1/0
[Ci fib]
+3.3 -8.9 40 +3 +3 1012.9 920.9 +6.0
15 21.05 З 1 н/о н/о -4.6 -9.4 69 -7 -7 1015.9 921.1
18 21.05 З 1 н/о н/о -7.2 -10.7 76 -9 -9 1016.3 920.5
21 21.05 С 1 н/о н/о -1.3 -10.2 51 -3 -3 1013.2 919.7
00 22.05 В 2 50 км ясно +5.8 -11.3 28 +4 +12 1008.1 917.3 -7.4
03 22.05 СВ 4 50 км ясно +9.0 -8.0 29 +7 +15 1004.2 914.7
06 22.05 ЮВ 2 50 км ясно +11.2 -10.2 21 +11 +20 1000.8 912.3
09 22.05 В 3 50 км 6/0
[Ci fib]
+11.9 -6.9 26 +11 +13 998.4 910.3
12 22.05 СВ 1 н/о н/о +7.8 -8.4 31 +8 +8 998.3 909.0 +12.2
15 22.05 З 1 н/о н/о -0.3 -6.3 64 -2 -2 1000.2 908.2
18 22.05 З 1 н/о н/о -4.9 -7.2 84 -7 -7 1001.0 907.4
21 22.05 штиль 0 н/о н/о +2.5 -5.4 56 +2 +2 997.9 907.0
00 23.05 С 3 50 км 8/5 1000 м
[Sc Ac As]
+8.5 -2.1 47 +6 +8 995.0 906.2 -5.0
03 23.05 В 3 50 км 8/6 1000 м
[Sc Ac As]
+10.3 +1.2 53 +9 +11 994.2 906.0
06 23.05 В 3 50 км 10/10 1000 м
[Sc]
+10.2 +0.4 51 +9 +9 994.3 906.1

 

Местоположение метеостанции Себян-Кюель (Якутия, Россия): широта 65.30 долгота 130.00 высота над уровнем моря 777 м.

В архиве по умолчанию представлена погода в Себян-Кюеле за последнюю неделю. Архивные данные за месяц целиком и за предыдущие месяцы, начиная с января 2011 года, Вы можете получить, выбрав интересующий диапазон дат из раскрывающегося списка и нажав кнопку "Ввод!".


*Определитесь, кто Вы:
робот инопланетянин человек

Внимание! Время в таблицах - всемирное. Для получения местного времени необходимо прибавить поправку, которая равна 9 ч.

Смотрите также архив погоды в соседних городах и на ближайших метеорологических станциях:

Погода в Сеген-Кюеле (Якутия, Россия) (145 км)
Погода в Екюччю (Якутия, Россия) (179 км)
Погода в Сангаре (Якутия, Россия) (195 км)
Погода в Батамае (Якутия, Россия) (200 км)
Погода в Сого-Хае (Якутия, Россия) (205 км)
Погода в Верхоянском Перевозе (Якутия, Россия) (240 км)
Погода в Иэме (Якутия, Россия) (269 км)
Погода в Бестяхской Звероферме (Якутия, Россия) (274 км)
Погода в Батагай-Алыте (Якутия, Россия) (276 км)
Погода в Намцах (Якутия, Россия) (288 км)

Пояснения к столбцам:

Ветер - указаны скорость ветра в м/с - средняя за 10 мин, порывы в срок и между сроками (в фигурных скобках) и направление, откуда дует ветер: С - северный, СВ - северо-восточный, В - восточный, ЮВ - юго-восточный, Ю - южный, ЮЗ - юго-западный, З - западный, СЗ - северо-западный.
Видимость - горизонтальная дальность видимости в метрах или километрах. При видимости от 1 до 10 км при отсутствии осадков обычно наблюдается дымка, при ухудшении видимости до 1 км и менее - туман. В сухую погоду видимость может ухудшаться дымом, пылью или мглою.
Явления - указаны атмосферные явления, наблюдавшиеся в срок или в последний час перед сроком; фигурными скобками обозначены явления, наблюдавшиеся между сроками (за 1-3 часа до срока); квадратными скобками обозначены град или гололедные отложения с указанием их диаметра в мм.
Облачность - указаны через наклонную черту общая и нижняя облачность в баллах и высота нижней границы облаков в метрах; квадратными скобками обозначены формы облаков: Ci - перистые, Cs - перисто-слоистые, Cc - перисто-кучевые, Ac - высококучевые, As - высокослоистые, Sc - слоисто-кучевые, Ns - слоисто-дождевые, Cu - кучевые, Cb - кучево-дождевые. Подробнее классификацию облаков см. в Атласе облаков (PDF).
T - Температура воздуха - температура, измеренная на высоте 2 м над землей.
Td - Температура точки росы - температура, при понижении до которой содержащийся в воздухе водяной пар достигнет насыщения.
f - Относительная влажность воздуха - влажноcть воздуха, измеренная на высоте 2 м над землей.
Te - Эффективная температура - температура, которую ощущает одетый по сезону человек в тени. Характеристика душности погоды. При расчете учитывается влияние влажности воздуха и скорости ветра на теплоощущения человека.
Tes - Эффективная температура на солнце - температура, которую ощущает человек, с поправкой на солнечный нагрев. Характеристика знойности погоды. Зависит от высоты солнца над горизонтом, облачности и скорости ветра. Ночью, в пасмурную погоду, а также при ветре 12 м/с и более поправка равна нулю.
P - Атмосферное давление - приведенное к уровню моря атмосферное давление.
Po - Атмосферное давление - измеренное на уровне метеостанции атмосферное давление.
Tmin - Минимальная температура - минимум температуры воздуха на высоте 2 м над землей.
Tmax - Максимальная температура - максимум температуры воздуха на высоте 2 м над землей.
R - Количество осадков - Количество выпавших осадков за период времени, мм. При наведении курсора мыши на число - период времени, за который выпало указанное количество осадков.
R24 - Количество осадков - Количество выпавших осадков за 24 часа, мм.
S - Снежный покров - Высота снежного покрова, см. При наведении курсора мыши на число - состояние снежного покрова и степень покрытия местности в баллах.